Regional Weather Roundup
Issued by NWS Charleston, SC

Current Version | Previous Version | Graphics & Text | Print | Product List | Glossary On
Versions: 1 2 3 4 5 6 7 8 9 10 11 12 13 14 15 16 17 18 19 20 21 22 23 24 25 26 27 28 29 30 31 32 33 34 35 36 37 38 39 40 41 42 43 44 45 46 47 48 49 50
000 ASUS42 KCHS 281212 RWRCHS REGIONAL WEATHER ROUNDUP NATIONAL WEATHER SERVICE CHARLESTON SC 800 AM EDT THU MAY 28 2015 NOTE: "FAIR" INDICATES FEW OR NO CLOUDS BELOW 12,000 FEET WITH NO SIGNIFICANT WEATHER AND/OR OBSTRUCTIONS TO VISIBILITY. NOT ALL STATIONS ARE QUALITY CONTROLLED BY THE NATIONAL WEATHER SERVICE. USE DATA WITH CAUTION...ESPECIALLY DEWPOINT OBSERVATIONS. SCZ027-030-031-034>040-042>050-281300- ...SOUTHEAST SOUTH CAROLINA... CITY SKY/WX TMP DP RH WIND PRES REMARKS N CHARLESTON MOSUNNY 74 69 85 E3 30.21R 6HR MIN TEMP: 66; 6HR MAX TEMP: 74; WATERFRONT PAR N/A 76 71 84 E5 30.18R MOUNT PLEASANT FAIR 72 70 94 CALM 30.22R JOHNS ISLAND MOSUNNY 72 70 94 CALM 30.22R PINOPOLIS NOT AVBL MONCKS CORNER FAIR 72 68 88 CALM 30.22R FOG SUMMERVILLE FAIR 70 68 94 CALM 30.22S BEAUFORT MCAS MOSUNNY 75 70 84 CALM 30.21R 6HR MIN TEMP: 68; 6HR MAX TEMP: 75; BEAUFORT ARPT FAIR 73 73 100 CALM 30.21R HILTON HEAD IS SUNNY 70 70 100 CALM 30.22R WALTERBORO SUNNY 70 68 94 CALM 30.22S ALLENDALE FAIR 70 68 94 CALM 30.21R FOG ...SOUTHERN MIDLANDS AND PEE DEE... CITY SKY/WX TMP DP RH WIND PRES REMARKS GEORGETOWN NOT AVBL KINGSTREE NOT AVBL ORANGEBURG SUNNY 70 66 87 CALM 30.22R 6HR MIN TEMP: 64; 6HR MAX TEMP: 70; BARNWELL FAIR 72 68 88 CALM 30.22R AIKEN FAIR 68 64 88 SE3 30.25R MANNING FAIR 68 64 88 CALM 30.22S COLUMBIA PTSUNNY 70 66 87 CALM 30.21R 6HR MIN TEMP: 66; 6HR MAX TEMP: 71; SUMTER FOG 70 68 94 NE1 30.21R VSB 1 6HR MIN TEMP: 66; 6HR MAX TEMP: 70; FLORENCE MOSUNNY 70 68 93 SE3 30.23R 6HR MIN TEMP: 67; 6HR MAX TEMP: 71; MYRTLE BEACH MOSUNNY 75 64 69 SE8 30.25R N MYRTLE BEACH MOSUNNY 76 64 66 SE5 30.24R 6HR MIN TEMP: 69; 6HR MAX TEMP: 76; $$ GAZ063-065-086>088-099>101-113>116-118-119-134>141-150-281300- ...SOUTHEAST GEORGIA... CITY SKY/WX TMP DP RH WIND PRES REMARKS SAVANNAH ARPT MOSUNNY 72 67 84 CALM 30.21R 6HR MIN TEMP: 64; 6HR MAX TEMP: 72; HUNTER AAF SUNNY 73 71 91 NE1 30.19R 6HR MIN TEMP: 66; 6HR MAX TEMP: 73; FORT STEWART SUNNY 69 66 90 CALM 30.18R 6HR MIN TEMP: 64; 6HR MAX TEMP: 69; STATESBORO SUNNY 69 69 100 CALM 30.21R SYLVANIA SUNNY 70 70 98 CALM 30.22R CLAXTON FAIR 68 66 94 CALM 30.21R ...CSRA...CENTRAL AND FAR SOUTHEAST GEORGIA... CITY SKY/WX TMP DP RH WIND PRES REMARKS THOMSON PTSUNNY 73 72 96 SE3 30.25S AUGUSTA-BUSH PTSUNNY 71 67 87 SE5 30.21R 6HR MIN TEMP: 67; 6HR MAX TEMP: 71; AUGUSTA-DANIEL PTSUNNY 73 65 75 S3 30.22R SWAINSBORO FAIR 72 72 100 SE3 30.21S VIDALIA MOSUNNY 70 66 88 CALM 30.21R EASTMAN FAIR 69 69 100 CALM 30.23R HAZLEHURST FAIR 71 70 94 CALM 30.20R ALMA SUNNY 70 66 87 E3 30.20R 6HR MIN TEMP: 63; 6HR MAX TEMP: 70; WAYCROSS SUNNY 69 68 94 CALM 30.20R JESUP FAIR 72 68 88 CALM 30.20R BAXLEY FAIR 72 68 88 E3 30.19S BRUNSWICK N/A 70 68 94 CALM 30.20R SAINT SIMONS NOT AVBL $$ SCZ027-028-034-036>038-045-046-048>050-GAZ119-141-281300- ...LAKE AND SUPPLEMENTAL COASTAL OBSERVATIONS... STATION/POSITION TIME TEMP WIND PRES WAVE SWELL AIR SEA DIR/SP/G HT/PER HT/PER/DIR (UTC) (F) (DEG/KT/KT) (MB) (FT/S) (FT/S/D) UPR LAKE MARION NOT AVBL WINYAH BAY NOT AVBL LAKE MURRAY 1100 73 160/ 5/ 6 1022.0S ACE BASIN NERRS NOT AVBL FORT PULASKI 1100 76 79 CALM / 1 1022.7R SAPELO ISLAND 1100 67 70/ 2 1022.0R $$ ANZ835-935-AMZ111-154-330-350-352-354-370-450-454-472-281300- ...C-MAN AND BUOY OBSERVATIONS... STATION/POSITION TIME TEMP WIND PRES WAVE SWELL AIR SEA DIR/SP/G HT/PER HT/PER/DIR (UTC) (F) (DEG/KT/KT) (MB) (FT/S) (FT/S/D) BUOY 41004 1150 75 78 80/ 8/ 10 1022.7R 3/ 7 3/ 7 BUOY 41008 1150 77 78 70/ 8/ 8 1022.5R 3/ 8 2/110/ 8 FOLLY BEACH CMAN 1200 76 110/ 7/ 9 1023.2R CAPERS NEARSHORE 1108 76 120/ 10/ 14 1022.8R FRIPP NEARSHORE 1100 77 80/ 4/ 4 1022.1R STATION/POSITION TIME TEMP WIND PRES WAVE SWELL AIR SEA DIR/SP/G HT/PER HT/PER/DIR (UTC) (F) (DEG/KT/KT) (MB) (FT/S) (FT/S/D) 5E ST. MARYS GA 1121 79 N/A 3/ 8 FRYING PAN BUOY 1150 76 75 110/ 8/ 10 1024.5R 3/ 7 3/120/ 7 BUOY 41025 1150 75 77 180/ 4/ 6 1024.7R 2/ 8 2/150/ 8 CAPE LOOKOUT NC 1200 74 100/ 6/ 6 1024.2R BUOY 41002 1150 74 74 60/ 12/ 14 1023.5R 5/ 8 5/ 90/ 8 BUOY 41010 1120 76 79 70/ 12/ 16 1021.0R ST AUGUSTINE FL 1200 77 78 90/ 13/ 14 1022.4R $$

USA.gov is the U.S. government's official web portal to all federal, state and local government web resources and services.